Total_Precipitation_Accumulation
1.45 1.55 2.29 3.14 3.55 3.04 2.68 2.13 1.65 1.44 1.27 0.99 0.78 0.77 1.15 1.53 1.97 2.30 2.14 1.94 1.49 1.25 1.36 1.98 2.49 2.22 1.91 1.71 1.73 1.85 1.81 1.87 1.73 1.65 1.46 1.29 1.10 1.02 0.93 0.83 0.78 0.78 0.73 0.69 0.75 0.90 0.90 0.93 0.96
1.35 2.18 3.04 3.82 3.42 2.67 2.52 2.06 1.75 1.41 0.96 0.76 0.62 0.64 0.84 0.83 0.80 1.20 2.11 2.20 1.49 1.20 1.27 1.75 2.53 2.20 2.03 1.93 1.93 1.86 1.84 1.90 1.71 1.58 1.43 1.29 1.18 1.14 1.10 1.14 1.16 1.00 0.83 0.78 0.78 0.93 0.91 0.88 0.94
1.58 2.81 3.87 3.78 2.73 2.36 2.53 2.05 1.53 1.12 0.76 0.73 0.68 0.61 0.75 0.96 1.02 1.60 2.24 1.93 1.43 1.21 1.33 2.02 2.52 2.18 2.04 2.00 1.98 1.86 1.94 1.95 1.74 1.53 1.33 1.23 1.23 1.36 1.40 1.36 1.23 1.02 0.87 0.81 0.81 0.88 0.93 0.89 0.85
2.04 3.25 3.40 2.90 2.53 2.12 1.94 1.70 1.30 1.26 0.94 0.68 0.65 0.68 0.64 0.96 1.17 1.60 1.79 1.57 1.43 1.42 1.43 2.04 2.49 2.27 2.08 2.04 1.97 1.88 1.89 1.95 1.85 1.55 1.34 1.24 1.24 1.24 1.25 1.27 1.18 1.02 0.88 0.77 0.84 0.92 0.92 0.91 0.89
2.53 3.13 3.06 2.62 2.39 2.02 1.55 1.37 1.23 1.38 1.20 0.80 0.67 0.85 0.99 1.33 1.47 1.56 1.62 1.61 1.33 1.35 1.41 1.78 2.22 2.10 1.93 1.91 1.92 1.94 1.93 1.91 1.86 1.59 1.43 1.37 1.31 1.18 1.17 1.17 1.10 0.93 0.82 0.78 0.86 0.94 0.93 0.91 0.94
2.80 2.79 2.98 2.82 2.58 2.19 1.77 1.46 1.31 1.30 1.14 0.85 0.80 0.98 1.28 1.77 1.81 1.73 1.53 1.53 1.44 1.32 1.31 1.53 1.97 2.06 1.91 1.84 1.80 1.85 1.87 1.88 1.78 1.47 1.35 1.31 1.29 1.22 1.15 1.12 1.08 0.95 0.95 0.91 0.87 0.87 0.90 0.93 0.94
2.72 2.67 2.62 2.42 2.60 2.70 2.12 1.44 1.45 1.32 1.25 1.02 0.80 1.10 1.35 1.93 1.76 1.75 1.65 1.58 1.65 1.47 1.42 1.50 1.74 1.87 2.11 2.11 1.96 1.91 1.88 1.84 1.73 1.47 1.34 1.27 1.16 1.03 1.00 1.00 0.96 0.99 1.02 0.94 0.85 0.81 0.81 0.87 0.91
2.18 2.21 2.09 2.17 2.49 2.63 1.93 1.21 1.07 1.25 1.27 0.88 0.76 1.06 1.35 1.66 1.61 1.72 1.79 1.69 1.59 1.54 1.48 1.43 1.54 1.58 1.76 1.91 2.03 2.04 1.97 1.88 1.79 1.52 1.38 1.29 1.09 0.94 0.92 0.86 0.90 0.96 1.04 1.08 0.97 0.89 0.88 0.90 0.97
2.03 2.29 2.33 2.48 2.36 2.18 1.53 1.24 1.04 0.93 1.03 0.87 0.77 0.88 1.22 1.28 1.37 1.64 1.80 1.74 1.52 1.41 1.33 1.28 1.32 1.45 1.60 1.79 1.93 2.07 2.00 1.93 1.80 1.57 1.44 1.32 1.04 0.89 0.86 0.81 1.03 1.03 1.06 1.10 1.10 1.12 1.10 1.00 0.95
2.11 2.42 2.41 2.08 1.60 1.51 1.32 1.15 1.03 0.94 1.05 1.02 0.92 0.99 1.32 1.44 1.45 1.59 1.58 1.50 1.38 1.41 1.26 1.07 1.09 1.19 1.32 1.45 1.86 1.88 1.63 1.57 1.46 1.61 1.47 1.28 1.20 1.06 0.73 0.79 1.03 1.19 1.20 1.13 1.09 1.18 1.06 0.84 0.72
1.69 1.89 1.64 1.60 1.27 1.09 1.10 1.04 0.92 1.06 1.21 0.97 0.97 1.06 1.40 1.58 1.49 1.52 1.47 1.36 1.32 1.26 1.17 1.05 0.97 0.94 0.96 1.09 1.34 1.50 1.53 1.57 1.46 1.39 1.30 1.27 1.14 0.94 0.78 0.82 0.83 0.87 0.92 0.86 0.88 0.87 0.73 0.67 0.71
1.49 1.38 1.16 1.29 1.12 1.09 1.10 0.97 0.91 0.96 1.04 0.77 0.83 1.05 1.39 1.57 1.52 1.43 1.30 1.23 1.15 1.07 1.06 0.99 0.85 0.78 0.72 0.75 0.82 0.95 1.13 1.26 1.27 1.09 0.99 1.04 1.07 0.96 0.81 0.81 0.80 0.79 0.83 0.94 0.96 0.96 0.87 0.81 0.79
1.65 1.44 1.21 1.16 1.11 1.04 0.98 0.93 0.88 0.86 0.78 0.76 0.85 1.14 1.44 1.65 1.70 1.64 1.35 1.08 0.99 1.00 1.00 0.90 0.75 0.72 0.67 0.67 0.67 0.65 0.87 1.06 1.16 1.16 0.99 0.93 0.95 0.94 0.89 0.76 0.77 0.72 0.76 0.82 0.87 0.90 0.94 1.00 0.96
1.50 1.35 1.29 1.27 1.14 0.97 0.98 0.94 0.87 1.01 0.87 0.85 0.87 1.04 1.20 1.36 1.39 1.29 1.23 0.95 0.81 0.83 0.94 0.87 0.80 0.80 0.72 0.63 0.62 0.62 0.72 0.86 0.89 1.05 1.05 0.97 0.89 0.85 0.89 0.85 0.85 0.86 0.85 0.83 0.81 0.80 0.93 1.00 1.05
1.15 1.36 1.37 1.28 1.15 1.05 0.95 1.13 1.03 1.07 0.98 0.99 0.97 0.97 1.09 1.17 1.22 1.07 0.93 0.78 0.75 0.74 0.76 0.72 0.71 0.76 0.75 0.72 0.67 0.66 0.78 0.82 0.86 0.90 0.89 0.95 0.85 0.78 0.84 0.88 0.89 0.90 0.90 0.88 0.89 0.90 1.00 1.03 1.13
1.23 1.52 1.73 1.40 1.19 1.16 1.20 1.39 1.22 1.18 1.08 1.02 0.95 0.96 0.98 1.07 1.17 1.11 0.95 0.74 0.69 0.65 0.65 0.66 0.60 0.67 0.77 0.82 0.84 0.87 0.89 0.93 0.98 0.93 0.87 0.86 0.81 0.77 0.86 0.90 0.93 0.98 0.90 0.88 0.98 1.05 1.15 1.18 1.25
1.50 1.52 1.46 1.37 1.13 1.13 1.20 1.25 1.17 1.23 1.16 1.00 0.87 0.83 0.79 0.87 0.92 0.92 0.90 0.79 0.70 0.63 0.63 0.67 0.65 0.69 0.77 0.82 0.92 1.00 1.06 1.14 1.26 1.21 1.16 1.09 0.96 0.96 1.04 1.10 1.11 1.11 1.12 1.06 0.98 1.03 1.19 1.33 1.34
1.40 1.11 1.05 1.08 1.03 0.99 1.06 1.00 1.03 1.15 1.11 0.99 0.82 0.74 0.67 0.72 0.74 0.72 0.76 0.77 0.77 0.71 0.66 0.70 0.76 0.80 0.91 1.06 1.23 1.41 1.52 1.67 1.86 1.80 1.66 1.45 1.27 1.23 1.35 1.35 1.27 1.33 1.44 1.49 1.30 1.35 1.32 1.29 1.37
0.85 0.83 0.85 0.78 0.73 0.81 0.82 0.85 0.89 0.89 0.92 0.84 0.67 0.62 0.62 0.62 0.64 0.64 0.67 0.72 0.73 0.72 0.69 0.67 0.71 0.78 0.89 1.10 1.37 1.77 1.99 2.12 2.11 2.11 2.02 1.79 1.55 1.57 1.76 1.75 1.71 1.70 1.71 1.68 1.62 1.79 1.73 1.46 1.37
0.72 0.78 0.79 0.73 0.64 0.66 0.65 0.67 0.68 0.67 0.62 0.58 0.52 0.49 0.52 0.53 0.61 0.58 0.56 0.59 0.63 0.61 0.63 0.73 0.71 0.75 0.86 1.11 1.38 1.69 2.02 2.08 2.10 2.11 2.07 1.95 1.79 1.78 1.84 2.07 2.16 2.13 2.27 2.25 2.06 2.21 2.23 1.85 1.61
0.69 0.75 0.74 0.78 0.73 0.65 0.62 0.68 0.67 0.60 0.50 0.44 0.42 0.41 0.43 0.43 0.49 0.52 0.51 0.51 0.55 0.53 0.49 0.60 0.69 0.79 1.03 1.33 1.57 1.73 2.00 2.08 2.12 2.08 2.09 2.11 2.04 1.94 1.99 2.12 2.28 2.29 2.38 2.51 2.57 2.49 2.60 2.42 2.01
0.74 0.52 0.47 0.55 0.80 0.83 0.63 0.79 0.65 0.53 0.55 0.49 0.43 0.40 0.41 0.43 0.43 0.43 0.47 0.48 0.45 0.42 0.39 0.46 0.57 0.79 1.14 1.47 1.67 1.88 2.22 2.27 2.18 2.18 2.14 2.15 2.17 2.14 2.24 2.28 2.38 2.38 2.40 2.52 2.61 2.55 2.71 2.81 2.44
0.53 0.43 0.43 0.49 0.66 0.71 0.54 0.57 0.58 0.49 0.55 0.55 0.49 0.47 0.42 0.38 0.35 0.34 0.36 0.37 0.38 0.41 0.42 0.46 0.62 0.87 1.17 1.39 1.64 1.99 2.18 2.24 2.33 2.22 2.17 2.16 2.21 2.23 2.29 2.37 2.54 2.52 2.50 2.48 2.69 2.72 2.82 2.76 2.70
0.37 0.47 0.53 0.54 0.66 0.70 0.38 0.45 0.57 0.49 0.41 0.43 0.45 0.44 0.39 0.35 0.33 0.34 0.36 0.37 0.39 0.42 0.48 0.58 0.75 0.92 1.17 1.38 1.62 1.80 2.00 2.10 2.20 2.26 2.17 2.14 2.19 2.28 2.17 2.09 2.28 2.34 2.37 2.37 2.56 2.72 2.85 2.82 2.84
0.39 0.69 0.93 0.92 0.92 0.71 0.31 0.43 0.57 0.40 0.31 0.33 0.36 0.39 0.38 0.39 0.41 0.45 0.47 0.55 0.63 0.65 0.67 0.76 0.88 1.03 1.17 1.30 1.44 1.50 1.64 1.77 1.77 1.92 1.98 2.09 2.09 2.13 2.14 2.03 2.04 2.09 2.05 2.08 2.21 2.28 2.35 2.49 2.66
0.35 0.54 0.88 0.93 0.79 0.61 0.45 0.63 0.62 0.41 0.34 0.35 0.35 0.40 0.43 0.51 0.57 0.67 0.75 0.83 0.93 0.94 0.95 1.02 1.08 1.10 1.15 1.22 1.28 1.33 1.40 1.47 1.50 1.52 1.51 1.66 1.81 1.82 1.88 1.89 1.83 1.89 1.95 1.93 2.04 2.08 2.10 2.13 2.20
0.34 0.40 0.46 0.61 0.52 0.54 0.53 0.65 0.59 0.43 0.42 0.42 0.44 0.48 0.57 0.74 0.83 0.93 1.04 1.06 1.06 1.07 1.05 1.07 1.11 1.10 1.11 1.16 1.17 1.10 1.09 1.17 1.26 1.26 1.32 1.34 1.40 1.39 1.44 1.52 1.60 1.69 1.76 1.81 1.97 2.08 2.08 2.03 2.00
0.30 0.41 0.55 0.83 0.93 0.81 0.66 0.76 0.76 0.60 0.50 0.47 0.54 0.65 0.81 1.06 1.19 1.30 1.40 1.33 1.25 1.27 1.33 1.24 1.15 1.09 1.06 1.07 1.11 1.03 0.99 1.05 1.09 1.05 1.10 1.07 1.07 1.07 1.11 1.21 1.38 1.61 1.73 1.76 1.85 1.94 2.02 2.03 1.99
0.33 0.45 0.62 0.89 0.97 1.13 1.17 1.21 0.92 0.74 0.68 0.76 0.90 1.01 1.20 1.44 1.59 1.68 1.69 1.60 1.42 1.30 1.30 1.26 1.16 1.05 0.94 0.93 1.01 1.03 0.95 0.98 1.01 0.99 0.92 0.88 0.89 0.94 1.03 1.07 1.22 1.37 1.56 1.74 1.88 1.92 1.92 1.95 1.94
0.41 0.60 0.80 1.25 1.23 1.10 1.29 1.42 1.02 0.82 0.81 0.84 0.94 1.11 1.32 1.43 1.50 1.54 1.50 1.49 1.38 1.28 1.19 1.18 1.09 0.93 0.88 0.93 0.96 0.99 0.89 0.86 0.91 0.90 0.93 0.82 0.76 0.78 0.84 0.97 1.17 1.28 1.36 1.41 1.50 1.59 1.65 1.70 1.76